Flag Weather past 2 weeks in Helmstedt, Lower Saxony, Germany

Now
40 °F

Fog.


Feels Like: 40 °F
Forecast: 33 / 40 °F
Wind: 2 mph from West

Location: Magdeburg

Current Time: Nov 25, 2014 at 3:20:12 AM

Latest Report: Nov 25, 2014 at 3:00 AM


Visibility: 2 mi

Pressure: 30.33 "Hg

Humidity: 88%

Dew point: 37 °F

Location of HelmstedtLocation

Historic Weather in Helmstedt — Graph

°F

Helmstedt temperature yesterday

Maximum temperature yesterday: 51 °F (at 8:00 AM)
Minimum temperature yesterday: 40 °F (at 7:00 PM)
Average temperature yesterday: 45 °F

Past Weeks' High & Low Weather Summary

 TemperatureHumidityPressure
High56 °F (Nov 14, 3:00 PM)99% (Nov 10, 2:00 AM)30.38 "Hg (Nov 10, 2:00 AM)
Low38 °F (Nov 23, 5:00 AM)72% (Nov 23, 1:00 PM)29.53 "Hg (Nov 16, 2:00 PM)
Average45 °F91%29.98 "Hg
* Reported Nov 10 2:00 AM — Nov 25 2:00 AM, Helmstedt, Weather by CustomWeather, © 2014

Note: Actual official high and low records may vary slightly from our data, if they occured in-between our weather recording intervals... More about our weather records

Advertising

Helmstedt weather history for previous 24 hours

 ConditionsComfort  
Time TempWeatherWind HumidityBarometerVisibility
2:00 AM
Nov 25
41 °FFog.3 mph87%30.33 "Hg2 mi
1:00 AM40 °FFog.3 mph87%30.33 "Hg2 mi
12:00 AM40 °FPassing clouds.2 mph85%30.33 "Hg10 mi
11:00 PM
Nov 24
41 °FPassing clouds.2 mph86%30.33 "Hg14 mi
9:00 PM41 °FPassing clouds.2 mph87%30.32 "Hg16 mi
8:00 PM41 °FClear.2 mph89%30.32 "Hg12 mi
7:00 PM40 °FClear.1 mph95%30.30 "Hg9 mi
6:00 PM42 °FClear.1 mph93%30.28 "Hg16 mi
5:00 PM44 °FClear.2 mph87%30.27 "Hg28 mi
3:00 PM49 °FScattered clouds.2 mph77%30.24 "Hg37 mi
2:00 PM50 °FPartly sunny.3 mph76%30.23 "Hg37 mi
1:00 PM48 °FPartly sunny.2 mph82%30.21 "Hg37 mi
12:00 PM51 °FPartly sunny.2 mph82%30.19 "Hg37 mi
11:00 AM49 °FOvercast.5 mph89%30.17 "Hg16 mi
9:00 AM49 °FLight rain. Overcast.3 mph91%30.13 "Hg10 mi
8:00 AM51 °FLight rain. Overcast.6 mph85%30.11 "Hg6 mi
7:00 AM46 °FOvercast.1 mph87%30.06 "Hg16 mi
6:00 AM46 °FOvercast.2 mph87%30.02 "Hg12 mi
5:00 AM45 °FOvercast.2 mph85%30.02 "Hg11 mi
3:00 AM44 °FOvercast.3 mph86%30.04 "Hg10 mi
Weather by CustomWeather, © 2014

See weather overviewHow to use our weather pages